This is the latest recevied weather packets stored in our database for station/object KE5AKC. If no packets are shown the sender has not sent any weather packets the latest 10 day(s).
| Time | Temp. | Humidity | Pressure | Rain* | Wind** | Luminosity | Snow |
|---|---|---|---|---|---|---|---|
| 1777988939 | 24.44° C | 82% | 1009.3 hPa | 0 mm | - | 73 W/m² | - |
| 1777988630 | 24.44° C | 82% | 1009.7 hPa | 0 mm | - | 107 W/m² | - |
| 1777988327 | 24.44° C | 82% | 1009.7 hPa | 0 mm | - | 60 W/m² | - |
| 1777988023 | 24.44° C | 82% | 1009.7 hPa | 0 mm | - | 103 W/m² | - |
| 1777987719 | 24.44° C | 83% | 1009.3 hPa | 0 mm | - | 97 W/m² | - |
| 1777987417 | 24.44° C | 83% | 1009 hPa | 0 mm | - | 123 W/m² | - |
| 1777987114 | 23.89° C | 83% | 1009.3 hPa | 0 mm | - | 117 W/m² | - |
| 1777986811 | 24.44° C | 82% | 1009 hPa | 0 mm | - | 107 W/m² | - |
| 1777986509 | 24.44° C | 82% | 1009 hPa | 0 mm | - | 107 W/m² | - |
| 1777986207 | 24.44° C | 81% | 1009 hPa | 0 mm | - | 153 W/m² | - |
| 1777985904 | 24.44° C | 83% | 1008.6 hPa | 0 mm | - | 216 W/m² | - |
| 1777985601 | 23.89° C | 83% | 1008.6 hPa | 0 mm | - | 161 W/m² | - |
| 1777985297 | 23.89° C | 84% | 1009 hPa | 0 mm | - | 176 W/m² | - |
| 1777984994 | 23.33° C | 84% | 1009 hPa | 0 mm | - | 122 W/m² | - |
| 1777984690 | 23.33° C | 85% | 1009 hPa | 0 mm | - | 87 W/m² | - |
| 1777984387 | 23.33° C | 85% | 1009 hPa | 0 mm | - | 70 W/m² | - |
| 1777984083 | 23.33° C | 85% | 1009 hPa | 0 mm | - | 31 W/m² | - |
| 1777983781 | 23.33° C | 85% | 1009 hPa | 0 mm | - | 22 W/m² | - |
| 1777983477 | 23.33° C | 85% | 1008.6 hPa | 0 mm | - | 18 W/m² | - |
| 1777983174 | 23.33° C | 85% | 1008.6 hPa | 0 mm | - | 23 W/m² | - |
| 1777982870 | 23.33° C | 85% | 1008.6 hPa | 0 mm | - | 21 W/m² | - |
| 1777982567 | 23.33° C | 85% | 1008.6 hPa | 0 mm | - | 24 W/m² | - |
| 1777982265 | 23.33° C | 85% | 1008.6 hPa | 0 mm | - | 24 W/m² | - |
| 1777981963 | 22.78° C | 85% | 1009 hPa | 0 mm | - | 11 W/m² | - |
| 1777981660 | 22.78° C | 85% | 1009 hPa | 0 mm | - | 4 W/m² | - |
* Rain latest hour (hover to see other rain measurements)
** Current wind speed in m/s (hover to see current wind gust speed)